Weather History for EDDT - January, 2014

Change the Weather History Date:

Wednesday, January 29, 2014

  Actual Average Record
Temperature  
Mean Temperature 21 °F -  
Max Temperature 23 °F 39 °F 51 °F (2002)
Min Temperature 19 °F 29 °F 10 °F (2006)
Degree Days  
Heating Degree Days 44    
Moisture  
Dew Point 16 °F    
Average Humidity 78    
Maximum Humidity 86    
Minimum Humidity 66    
Precipitation  
Precipitation 0.00 in - - ()
Sea Level Pressure  
Sea Level Pressure 29.83 in    
Wind  
Wind Speed 13 mph ()    
Max Wind Speed 20 mph    
Max Gust Speed -    
Visibility 6.5 miles    
Events Snow    
Averages and records for this station are not official NWS values.
T = Trace of Precipitation, MM = Missing Value Source: Averaged Metar Reports

Daily Weather History Graph

Daily Weather History Graph

Search for Another Location

Airport or City:

Trip Planner

Search our weather history database for the weather conditions in past years. The results will help you decide how hot, cold, wet, or windy it might be!

Date:

Astronomy

Jan. 29, 2014 Rise Set
Actual Time 7:53 AM CET 4:46 PM CET
Civil Twilight 7:15 AM CET 5:24 PM CET
Nautical Twilight 6:34 AM CET 6:06 PM CET
Astronomical Twilight 5:54 AM CET 6:46 PM CET
Moon 6:18 AM CET (1/29) 3:24 PM CET (1/29)
Length of Visible Light 10h 08m
Length of Day
8h 53m
Waning Crescent, 3% of the Moon is Illuminated
Jan 29
Waning Crescent
Jan 30
New
Feb 6
First Quarter
Feb 15
Full
Feb 22
Last Quarter

Hourly Weather History & Observations

Time (CET) Temp. Windchill Dew Point Humidity Pressure Visibility Wind Dir Wind Speed Gust Speed Precip Events Conditions
12:00 AM 22 °F - 17 °F 74% 29.79 in 7 mi East 11.2 mph - -   Overcast
12:20 AM 23.0 °F 10.6 °F 17.6 °F 80% 29.77 in 6.2 mi East 13.8 mph - N/A   Mostly Cloudy
12:50 AM 23.0 °F 9.6 °F 17.6 °F 80% 29.77 in 6.2 mi East 16.1 mph - N/A   Mostly Cloudy
1:00 AM 22 °F - 17 °F 71% 29.79 in 7 mi East 13.4 mph - -   Overcast
1:20 AM 21.2 °F 8.3 °F 17.6 °F 86% 29.77 in 6.2 mi East 13.8 mph - N/A   Mostly Cloudy
1:50 AM 21.2 °F 7.8 °F 15.8 °F 80% 29.77 in 6.2 mi East 15.0 mph - N/A   Mostly Cloudy
2:00 AM 22 °F - 16 °F 69% 29.79 in 9 mi East 11.2 mph - -   Overcast
2:20 AM 21.2 °F 9.5 °F 17.6 °F 86% 29.77 in 6.2 mi East 11.5 mph - N/A   Mostly Cloudy
2:50 AM 21.2 °F 7.3 °F 17.6 °F 86% 29.77 in 6.2 mi East 16.1 mph - N/A   Mostly Cloudy
3:00 AM 21 °F - 17 °F 76% 29.79 in 9 mi East 11.2 mph - -   Overcast
3:20 AM 21.2 °F 8.3 °F 17.6 °F 86% 29.77 in 6.2 mi East 13.8 mph - N/A   Mostly Cloudy
3:50 AM 21.2 °F 8.3 °F 17.6 °F 86% 29.77 in 6.2 mi ENE 13.8 mph - N/A   Mostly Cloudy
4:00 AM 20 °F - 17 °F 81% 29.79 in 9 mi East 11.2 mph - -   Overcast
4:20 AM 21.2 °F 8.3 °F 17.6 °F 86% 29.77 in 6.2 mi East 13.8 mph - N/A   Mostly Cloudy
4:50 AM 21.2 °F 6.8 °F 15.8 °F 80% 29.77 in 6.2 mi East 17.3 mph - N/A   Mostly Cloudy
5:00 AM 20 °F - 16 °F 79% 29.80 in 9 mi East 11.2 mph - -   Overcast
5:20 AM 19.4 °F 5.0 °F 15.8 °F 86% 29.80 in 6.2 mi East 16.1 mph - N/A   Mostly Cloudy
5:50 AM 19.4 °F 5.0 °F 15.8 °F 86% 29.80 in 6.2 mi East 16.1 mph - N/A   Mostly Cloudy
6:00 AM 20 °F - 15 °F 75% 29.80 in 9 mi East 11.2 mph - -   Overcast
6:20 AM 19.4 °F 4.5 °F 15.8 °F 86% 29.80 in 6.2 mi East 17.3 mph - N/A   Mostly Cloudy
6:50 AM 19.4 °F 4.5 °F 15.8 °F 86% 29.80 in 6.2 mi East 17.3 mph - N/A   Mostly Cloudy
7:00 AM 20 °F - 15 °F 72% 29.80 in 9 mi East 13.4 mph - -   Overcast
7:20 AM 19.4 °F 5.0 °F 14.0 °F 80% 29.80 in 6.2 mi East 16.1 mph - N/A   Mostly Cloudy
7:50 AM 19.4 °F 5.0 °F 15.8 °F 86% 29.77 in 6.2 mi East 16.1 mph - N/A   Mostly Cloudy
8:00 AM 20 °F - 15 °F 72% 29.81 in 8 mi East 13.4 mph - -   Overcast
8:20 AM 19.4 °F 5.0 °F 15.8 °F 86% 29.80 in 6.2 mi East 16.1 mph - N/A   Mostly Cloudy
8:50 AM 19.4 °F 5.0 °F 15.8 °F 86% 29.80 in 6.2 mi East 16.1 mph - N/A   Mostly Cloudy
9:00 AM 20 °F - 15 °F 72% 29.82 in 9 mi East 13.4 mph - -   Overcast
9:20 AM 21.2 °F 7.8 °F 15.8 °F 80% 29.80 in 6.2 mi East 15.0 mph - N/A   Mostly Cloudy
9:50 AM 21.2 °F 6.8 °F 15.8 °F 80% 29.80 in 6.2 mi East 17.3 mph - N/A Snow Light Snow
10:00 AM 21 °F - 15 °F 68% 29.83 in 6 mi East 11.2 mph - - Snow Light Snow
10:20 AM 21.2 °F 6.8 °F 15.8 °F 80% 29.80 in 5.6 mi East 17.3 mph - N/A Snow Light Snow
10:50 AM 21.2 °F 6.8 °F 15.8 °F 80% 29.80 in 5.0 mi East 17.3 mph - N/A Snow Light Snow
11:00 AM 21 °F - 15 °F 69% 29.83 in 5 mi East 11.2 mph - - Snow Light Snow
11:20 AM 21.2 °F 7.3 °F 15.8 °F 80% 29.83 in 5.6 mi East 16.1 mph - N/A Snow Light Snow
11:50 AM 21.2 °F 6.8 °F 15.8 °F 80% 29.83 in 5.6 mi East 17.3 mph - N/A   Mostly Cloudy
12:00 PM 21 °F - 15 °F 69% 29.84 in 6 mi East 13.4 mph - - Snow Light Snow
12:20 PM 21.2 °F 6.8 °F 15.8 °F 80% 29.83 in 5.6 mi East 17.3 mph - N/A   Mostly Cloudy
12:50 PM 21.2 °F 7.3 °F 14.0 °F 74% 29.83 in 5.6 mi East 16.1 mph - N/A   Mostly Cloudy
1:00 PM 21 °F - 15 °F 67% 29.84 in 6 mi East 13.4 mph - -   Partly Cloudy
1:20 PM 21.2 °F 6.4 °F 14.0 °F 74% 29.83 in 5.6 mi East 18.4 mph - N/A   Mostly Cloudy
1:50 PM 21.2 °F 6.8 °F 14.0 °F 74% 29.83 in 6.2 mi East 17.3 mph - N/A   Mostly Cloudy
2:00 PM 21 °F - 15 °F 66% 29.84 in 6 mi East 15.7 mph - -   Overcast
2:20 PM 21.2 °F 6.0 °F 14.0 °F 74% 29.83 in 6.2 mi East 19.6 mph - N/A   Mostly Cloudy
2:50 PM 21.2 °F 6.8 °F 15.8 °F 80% 29.83 in 6.2 mi East 17.3 mph - N/A   Mostly Cloudy
3:00 PM 21 °F - 15 °F 67% 29.85 in 6 mi East 13.4 mph - -   Overcast
3:20 PM 21.2 °F 7.3 °F 14.0 °F 74% 29.83 in 6.2 mi East 16.1 mph - N/A   Mostly Cloudy
3:50 PM 21.2 °F 6.8 °F 14.0 °F 74% 29.83 in 6.2 mi East 17.3 mph - N/A   Mostly Cloudy
4:00 PM 21 °F - 15 °F 66% 29.86 in 7 mi East 11.2 mph - -   Overcast
4:20 PM 21.2 °F 8.9 °F 14.0 °F 74% 29.83 in 6.2 mi East 12.7 mph - N/A   Mostly Cloudy
4:50 PM 21.2 °F 7.8 °F 14.0 °F 74% 29.83 in 6.2 mi East 15.0 mph - N/A   Mostly Cloudy
5:00 PM 21 °F - 15 °F 67% 29.86 in 7 mi East 11.2 mph - -   Overcast
5:20 PM 21.2 °F 6.8 °F 15.8 °F 80% 29.86 in 6.2 mi East 17.3 mph - N/A   Mostly Cloudy
5:50 PM 21.2 °F 7.8 °F 15.8 °F 80% 29.86 in 6.2 mi East 15.0 mph - N/A   Mostly Cloudy
6:00 PM 21 °F - 16 °F 71% 29.88 in 7 mi ESE 11.2 mph - -   Overcast
6:20 PM 21.2 °F 7.8 °F 15.8 °F 80% 29.86 in 6.2 mi East 15.0 mph - N/A   Mostly Cloudy
6:50 PM 21.2 °F 8.3 °F 15.8 °F 80% 29.89 in 6.2 mi East 13.8 mph - N/A   Mostly Cloudy
7:00 PM 21 °F - 15 °F 70% 29.90 in 8 mi East 11.2 mph - -   Mostly Cloudy
7:20 PM 21.2 °F 7.3 °F 15.8 °F 80% 29.89 in 6.2 mi East 16.1 mph - N/A   Mostly Cloudy
7:50 PM 21.2 °F 7.8 °F 15.8 °F 80% 29.89 in 6.2 mi East 15.0 mph - N/A   Mostly Cloudy
8:00 PM 21 °F - 16 °F 73% 29.91 in 7 mi ESE 11.2 mph - -   Mostly Cloudy
8:20 PM 21.2 °F 7.8 °F 15.8 °F 80% 29.89 in 6.2 mi East 15.0 mph - N/A   Mostly Cloudy
8:50 PM 23.0 °F 10.6 °F 17.6 °F 80% 29.89 in 6.2 mi East 13.8 mph - N/A   Mostly Cloudy
9:00 PM 22 °F - 17 °F 73% 29.91 in 7 mi East 13.4 mph - -   Overcast
9:20 PM 23.0 °F 9.6 °F 17.6 °F 80% 29.89 in 6.2 mi East 16.1 mph - N/A   Mostly Cloudy
9:50 PM 23.0 °F 10.1 °F 17.6 °F 80% 29.89 in 6.2 mi East 15.0 mph - N/A   Mostly Cloudy
10:00 PM 22 °F - 17 °F 75% 29.91 in 7 mi East 8.9 mph - -   Overcast
10:20 PM 23.0 °F 10.1 °F 17.6 °F 80% 29.89 in 6.2 mi East 15.0 mph - N/A   Mostly Cloudy
10:50 PM 23.0 °F 9.6 °F 17.6 °F 80% 29.89 in 6.2 mi East 16.1 mph - N/A   Mostly Cloudy
11:00 PM 23 °F - 18 °F 71% 29.92 in 7 mi East 13.4 mph - -   Overcast
11:20 PM 23.0 °F 9.6 °F 17.6 °F 80% 29.89 in 6.2 mi East 16.1 mph - N/A   Mostly Cloudy
11:50 PM 23.0 °F 10.1 °F 17.6 °F 80% 29.92 in 6.2 mi East 15.0 mph - N/A   Mostly Cloudy